Iron Mountain, MI

8:06 AM CDT on August 20, 2017 (GMT -0500)
Ford

Weather History for KIMT - February, 2013

Change the Weather History Date:

Wednesday, February 20, 2013

  Actual Average Record
Temperature  
Mean Temperature 12 °F -  
Max Temperature 19 °F 32 °F 52 °F (1982)
Min Temperature 6 °F 8 °F -23 °F (1959)
Degree Days  
Heating Degree Days 52    
Moisture  
Dew Point 3 °F    
Average Humidity 68    
Maximum Humidity 80    
Minimum Humidity 57    
Precipitation  
Precipitation 0.00 in - - ()
Sea Level Pressure  
Sea Level Pressure 30.29 in    
Wind  
Wind Speed 18 mph (NNW)    
Max Wind Speed 26 mph    
Max Gust Speed 36 mph    
Visibility 9 miles    
Events      
Averages and records for this station are not official NWS values.
T = Trace of Precipitation, MM = Missing Value Source: NWS Daily Summary

Daily Weather History Graph

Daily Weather History Graph

Search for Another Location

Airport or City:

Trip Planner

Search our weather history database for the weather conditions in past years. The results will help you decide how hot, cold, wet, or windy it might be!

Date:

Astronomy

Feb. 20, 2013 Rise Set
Actual Time 6:46 AM CST 5:26 PM CST
Civil Twilight 6:15 AM CST 5:57 PM CST
Nautical Twilight 5:41 AM CST 6:31 PM CST
Astronomical Twilight 5:06 AM CST 7:06 PM CST
Moon 12:38 PM CST 3:15 AM CST
Length of Visible Light 11h 41m
Length of Day
10h 40m
Waxing Gibbous, 76% of the Moon is Illuminated
Feb 20
Waxing Gibbous
Feb 25
Full
Mar 4
Last Quarter
Mar 11
New
Mar 19
First Quarter

Hourly Weather History & Observations

Time (CST) Temp. Windchill Dew Point Humidity Pressure Visibility Wind Dir Wind Speed Gust Speed Precip Events Conditions
12:06 AM 10.4 °F -8.6 °F 3.2 °F 73% 30.00 in 5.0 mi NW 20.7 mph 27.6 mph N/A   Haze
12:54 AM 10.0 °F -11.1 °F 1.9 °F 70% 30.09 in 3.0 mi NNW 26.5 mph 35.7 mph 0.00 in   Overcast
1:54 AM 10.0 °F -8.6 °F 3.0 °F 73% 30.12 in 7.0 mi NNW 19.6 mph - 0.00 in   Overcast
2:54 AM 9.0 °F -10.5 °F 1.9 °F 73% 30.14 in 7.0 mi NNW 20.7 mph 27.6 mph 0.00 in   Overcast
3:54 AM 9.0 °F -9.5 °F 1.9 °F 73% 30.17 in 9.0 mi NW 18.4 mph 25.3 mph 0.00 in   Overcast
4:54 AM 8.1 °F -9.6 °F 1.0 °F 73% 30.21 in 10.0 mi NW 16.1 mph 25.3 mph N/A   Overcast
5:54 AM 9.0 °F -8.5 °F 1.0 °F 70% 30.24 in 10.0 mi NW 16.1 mph - N/A   Overcast
6:54 AM 8.1 °F -10.2 °F 1.0 °F 73% 30.26 in 8.0 mi NNW 17.3 mph 28.8 mph N/A   Overcast
7:54 AM 9.0 °F -8.5 °F 1.0 °F 70% 30.28 in 10.0 mi NNW 16.1 mph 26.5 mph N/A   Mostly Cloudy
8:54 AM 10.0 °F -8.1 °F 1.9 °F 70% 30.29 in 9.0 mi NW 18.4 mph 29.9 mph N/A   Overcast
9:47 AM 12.2 °F -3.7 °F 1.4 °F 62% 30.21 in 10.0 mi NNW 15.0 mph 34.5 mph N/A   Scattered Clouds
9:54 AM 12.0 °F -6.5 °F 3.0 °F 67% 30.30 in 10.0 mi NNW 20.7 mph 27.6 mph N/A   Partly Cloudy
10:54 AM 14.0 °F -2.0 °F 3.0 °F 62% 30.31 in 10.0 mi NNW 16.1 mph 27.6 mph N/A   Partly Cloudy
11:54 AM 16.0 °F 0.1 °F 5.0 °F 62% 30.32 in 10.0 mi NNW 17.3 mph 24.2 mph N/A   Clear
12:54 PM 17.1 °F 1.0 °F 5.0 °F 59% 30.32 in 10.0 mi NNW 18.4 mph 25.3 mph N/A   Partly Cloudy
1:54 PM 18.0 °F 2.2 °F 6.1 °F 60% 30.32 in 10.0 mi North 18.4 mph - N/A   Clear
2:54 PM 19.0 °F 3.6 °F 6.1 °F 57% 30.32 in 10.0 mi NNW 18.4 mph 25.3 mph N/A   Clear
3:54 PM 19.0 °F 5.0 °F 7.0 °F 59% 30.36 in 10.0 mi NNW 15.0 mph - N/A   Clear
4:54 PM 18.0 °F 3.1 °F 6.1 °F 60% 30.38 in 10.0 mi NNW 16.1 mph - N/A   Clear
5:54 PM 15.1 °F 0.5 °F 5.0 °F 64% 30.40 in 10.0 mi NNW 13.8 mph - N/A   Clear
6:26 PM 14.0 °F -1.4 °F 5.0 °F 67% 30.33 in 10.0 mi NNW 15.0 mph 24.2 mph N/A   Mostly Cloudy
7:54 PM 10.9 °F -5.9 °F 3.9 °F 73% 30.43 in 10.0 mi NNW 16.1 mph - N/A   Mostly Cloudy
8:09 PM 10.4 °F -4.8 °F 3.2 °F 73% 30.35 in 10.0 mi North 12.7 mph - N/A   Scattered Clouds
8:54 PM 10.0 °F -4.5 °F 1.9 °F 70% 30.44 in 10.0 mi NNW 11.5 mph - N/A   Clear
9:54 PM 8.1 °F -4.3 °F 1.0 °F 73% 30.43 in 10.0 mi NNW 8.1 mph - N/A   Clear
11:22 PM 6.8 °F -6.9 °F 1.4 °F 79% 30.32 in 10.0 mi NNW 9.2 mph - N/A   Mostly Cloudy
11:54 PM 7.0 °F -5.7 °F 1.9 °F 80% 30.41 in 10.0 mi NW 8.1 mph - N/A   Overcast